Location: Bothwell
(42.3833°S, 147.0000°E)
Time: 01:29:09
(UTC+10:00)

DX 1 - Visible Passes

Search period start: 01 October 2022 23:00
Search period end: 12 October 2022 00:00
Orbit: 617 x 629 km, 98.4° (Epoch: 01 October)

Date Brightness Start Highest point End Pass type
(mag) Time Alt. Az. Time Alt. Az. Time Alt. Az.
02 Oct ? 20:33:50 14° ESE 20:34:09 14° ESE 20:36:30 10° SSE visible
02 Oct ? 22:11:04 41° SW 22:11:04 41° SW 22:14:09 10° SSW visible
03 Oct ? 20:52:06 21° ESE 20:52:06 21° ESE 20:55:24 10° SSE visible
03 Oct ? 22:29:20 30° WSW 22:29:20 30° WSW 22:32:06 10° SSW visible
04 Oct ? 21:10:23 30° ESE 21:10:23 30° ESE 21:13:59 10° S visible
04 Oct ? 22:47:36 22° WSW 22:47:36 22° WSW 22:49:53 10° SW visible
05 Oct ? 21:28:39 44° SE 21:28:39 44° SE 21:32:23 10° S visible
05 Oct ? 23:05:52 15° WSW 23:05:52 15° WSW 23:07:22 10° SW visible
06 Oct ? 21:46:56 59° SSE 21:46:56 59° SSE 21:50:39 10° S visible
07 Oct ? 20:27:58 12° ESE 20:28:52 12° ESE 20:30:39 10° SE visible
07 Oct ? 22:05:11 56° SW 22:05:11 56° SW 22:08:48 10° SSW visible
08 Oct ? 20:46:14 18° ESE 20:46:48 18° ESE 20:49:47 10° SSE visible
08 Oct ? 22:23:27 40° WSW 22:23:27 40° WSW 22:26:49 10° SSW visible
09 Oct ? 21:04:30 26° ESE 21:04:46 26° ESE 21:08:27 10° S visible
09 Oct ? 22:41:43 27° WSW 22:41:43 27° WSW 22:44:40 10° SW visible
10 Oct ? 21:22:46 39° ESE 21:22:47 39° ESE 21:26:54 10° S visible
10 Oct ? 22:59:59 18° WSW 22:59:59 18° WSW 23:02:15 10° SW visible
11 Oct ? 21:41:02 60° ESE 21:41:02 60° ESE 21:45:12 10° S visible
11 Oct ? 23:18:15 12° WSW 23:18:15 12° WSW 23:19:18 10° WSW visible
